Regional Weather Roundup
Issued by NWS

Home | Current Version | Previous Version | Text Only | Print | Product List | Glossary Off
Versions: 1 2 3 4 5 6 7 8 9 10 11 12 13 14 15 16 17 18 19 20 21 22 23 24 25 26 27 28 29 30 31 32 33 34 35 36 37 38 39 40 41 42 43 44 45 46 47 48 49 50

000
ASUS43 KMKX 272221
RWRWI

WISCONSIN REGIONAL WEATHER ROUNDUP
NATIONAL WEATHER SERVICE MILWAUKEE/SULLIVAN WI
500 PM CDT SAT MAY 27 2017

NOTE: "FAIR" INDICATES FEW OR NO CLOUDS BELOW 12,000 FEET WITH NO
SIGNIFICANT WEATHER AND/OR OBSTRUCTIONS TO VISIBILITY.

WIZ001-002-006>008-014>016-023>028-272300-
NORTHWEST WISCONSIN

CITY           SKY/WX    TMP DP  RH WIND       PRES   REMARKS
SUPERIOR ARPT  NOT AVBL
ASHLAND        PTSUNNY   73  44  35 VRB5      29.82F
HAYWARD        CLOUDY    70  42  36 CALM      29.84F
SIREN          CLOUDY    71  42  34 CALM      29.84F
CUMBERLAND     CLOUDY    68  41  37 W9        29.85F
RICE LAKE      CLOUDY    70  40  33 W7        29.86F
CHETEK         CLOUDY    70  47  43 W5        29.85F
LADYSMITH      CLOUDY    69  48  46 NW5       29.85F
EAU CLAIRE     CLOUDY    69  46  43 W10       29.85F
MENOMONIE      PTSUNNY   67  48  50 SW7       29.85F
NEW RICHMOND   PTSUNNY   67  51  57 SW10      29.86F
OSCEOLA        CLOUDY    71  44  36 W6        29.87F
$$

WIZ003>005-009-010-017-018-272300-
NORTH CENTRAL WISCONSIN

CITY           SKY/WX    TMP DP  RH WIND       PRES   REMARKS
MANITOWISH WTR CLOUDY    67  45  44 W9        29.84F
ARBOR VITAE    CLOUDY    69  46  42 W5        29.84F
WOODRUFF       CLOUDY    69  46  42 W5        29.84F
RHINELANDER    PTSUNNY   71  46  40 W9        29.84F
EAGLE RIVER    PTSUNNY   71  40  33 W10       29.84F
LAND O LAKES   PTSUNNY   72  42  33 W9        29.86S
PHILLIPS       CLOUDY    67  47  48 SW6       29.83F
TOMAHAWK       CLOUDY    68  46  44 W7        29.85F
MEDFORD        CLOUDY    66  48  52 W3        29.85F
MERRILL        CLOUDY    68  50  51 W8        29.84F
$$

WIZ029-030-035-036-043>047-272300-
CENTRAL WISCONSIN

CITY           SKY/WX    TMP DP  RH WIND       PRES   REMARKS
WAUSAU         CLOUDY    71  49  45 W15G21    29.83F
MOSINEE        PTSUNNY   70  52  52 NW12G18   29.85F
MARSHFIELD     MOSUNNY   69  51  52 N12       29.84F
STEVENS POINT  CLOUDY    71  48  43 NW6       29.83F
WAUPACA        CLOUDY    79  50  36 W5        29.81F
WAUTOMA        MOSUNNY   76  52  43 NW8       29.82
WISC RAPIDS    CLOUDY    76  51  41 NW7       29.84F
CAMP DOUGLAS   CLOUDY    75  55  50 W5        29.83F
$$

WIZ011>013-019>022-031-037>040-048>050-272300-
NORTHEAST WISCONSIN

CITY           SKY/WX    TMP DP  RH WIND       PRES   REMARKS
ANTIGO         CLOUDY    70  51  49 W9        29.84F
SHAWANO        PTSUNNY   78  49  35 NW8       29.81F
OCONTO         CLOUDY    76  56  50 SW6       29.81F
STURGEON BAY   CLOUDY    69  52  54 S10       29.84F
GREEN BAY      MOSUNNY   75  59  57 S8        29.82F
MANITOWOC      MOSUNNY   66  52  60 SE9       29.85F
APPLETON       PTSUNNY   73  54  49 SW9       29.82F
CLINTONVILLE   MOSUNNY   77  46  33 N6        29.81F
OSHKOSH        CLOUDY    74  56  53 VRB5      29.82F
$$

WIZ032>034-041-042-053>061-272300-
SOUTHWEST WISCONSIN

CITY           SKY/WX    TMP DP  RH WIND       PRES   REMARKS
LA CROSSE      CLOUDY    72  51  47 NW9       29.84F
SPARTA         MOSUNNY   73  50  44 NW7       29.84F
VIROQUA        CLOUDY    71  49  45 SW6       29.89R
BOSCOBEL       MOSUNNY   76  57  51 CALM      29.85R
PRAIRIE DU CHI CLOUDY    72  56  57 CALM      29.84R
PLATTEVILLE    CLOUDY    73  63  72 CALM      29.86R
$$

WIZ056-057-062-063-064-067-068-272300-
SOUTH CENTRAL WISCONSIN

CITY           SKY/WX    TMP DP  RH WIND       PRES   REMARKS
REEDSBURG      PTSUNNY   73  53  49 W7        29.87R
BARABOO/DELLS  PTSUNNY   74  57  54 CALM      29.83F
LONE ROCK      CLOUDY    75  56  51 CALM      29.86R
MINERAL POINT  SUNNY     73  55  53 NE3       29.86R
MADISON        CLOUDY    74  60  61 N6        29.83F
MIDDLETON      CLOUDY    76  60  59 NW7       29.86S
WATERTOWN      CLOUDY    73  60  64 SW6       29.84S
MONROE         MOSUNNY   75  55  50 NE3       29.85S
JANESVILLE     PTSUNNY   77  59  53 CALM      29.84F
$$

WIZ051-052-058>065-066-070>072-272300-
SOUTHEAST WISCONSIN

CITY           SKY/WX    TMP DP  RH WIND       PRES   REMARKS
MILWAUKEE      PTSUNNY   67  53  61 SE13      29.86F
WAUKESHA       PTSUNNY   72  57  60 SW5       29.86F
MILWAUKEE/TIMM MOSUNNY   72  50  46 SE8       29.86F
RACINE         MOSUNNY   66  49  54 SE9       29.89R
KENOSHA        SUNNY     69  55  60 SE9       29.87S
FOND DU LAC    CLOUDY    75  56  51 W8        29.83F
SHEBOYGAN      MOSUNNY   69  55  60 S13       29.85F
WEST BEND      CLOUDY    72  55  56 E8        29.85S
JUNEAU         CLOUDY    72  58  60 SW3       29.85F
$$

LSZ147-162-272300-
LAKE SUPERIOR

STATION/POSITION TIME  TEMP    WIND        PRES    WAVE
                       AIR SEA DIR/SP/G            HT/PER
                 (UTC) (F)     (DEG/KT/KT) (MB)    (FT/S)
W MID LAKE BUOY  2150   48 38  230/  8/  8 1010.1F   0
DEVILS ISLAND    2200   67     220/ 11/ 13 1009.0F
SAXON HARBOR     2130   68      70/  3/  5 1010.2F
$$

LMZ867-665-643>646-272300-
LAKE MICHIGAN

STATION/POSITION TIME  TEMP    WIND        PRES    WAVE
                       AIR SEA DIR/SP/G            HT/PER
                 (UTC) (F)     (DEG/KT/KT) (MB)    (FT/S)
CHAMBERS ISLAND  2140   69     150/  5/ 10 1010.2F
N MID LAKE BUOY  2150   49 43  190/ 10/ 10 1011.9F   0
NORTHPORT PIER   2140   67     150/  8/ 12 1010.8S
KEWAUNEE LAKESHO 2154   54     170/  8/  9 1010.4F
SHEBOYGAN LAKESH 2200   56     180/ 13/ 14 1010.8F
PORT WASHINGTON  2140   61     190/  2/  4 1012.2F
ATWATER BUOY     2109   54     160/  6/  6 1011.5F
MILWAUKEE LAKESH 2200   56     110/  3/  4   N/A
S MID LAKE BUOY  2150   54 52  360/  6/  6 1011.8F   0
KENOSHA   LAKESH 2200   60     160/  6/  7 1011.5
$$

TC  - TEMPERATURE IN CELSIUS
VSB - VISIBILITY IN STATUTE MILES
WCI - WIND CHILL INDEX
HX  - HEAT INDEX





USA.gov is the U.S. government's official web portal to all federal, state and local government web resources and services.